Location: Beuvrequen
(50.8014°N, 1.6652°E)
Time: 02:45:39
(UTC+00:00)

Cosmos 2218 Rocket - Pass Details

Date: 16 October 2021
Orbit: 956 x 1006 km, 82.9° (Epoch: 28 November)

Event Time Altitude Azimuth Distance (km) Brightness Sun altitude
Rises 17:18:24 0° 176° (S) 3,663 7.1 -3.9°
Reaches altitude 10° 17:20:54 10° 173° (S) 2,726 6.4 -4.3°
Maximum altitude 17:27:04 64° 94° (E) 1,094 4.1 -5.2°
Drops below altitude 10° 17:33:21 10° 15° (NNE) 2,778 6.2 -6.2°
Sets 17:35:55 0° 12° (NNE) 3,737 6.9 -6.6°
